RH
10 11 11 11 12 12 12 13 13 13 14 14 14 14 15 15 16 16 16 16 15 15 14 14 14 15 16 16 16 17 17 18 18 17 17 16 15 14 14 13 13 14 14 14 14 15 15 15 15 15 15 15 14 13 13 14 17 20 22 26 31 37 42 46 47 44 39 37 37 36 30 24 19 15 14 14 17 22 26 31 34 38 40 42 44
10 9 10 10 10 11 11 11 11 11 12 12 12 13 13 14 14 14 14 15 14 13 13 13 13 13 13 14 14 14 14 15 16 16 16 16 16 16 15 14 13 13 13 13 13 13 14 14 15 15 16 16 16 15 15 13 13 14 16 19 22 27 31 37 43 48 47 43 41 41 41 38 32 28 23 18 15 13 14 16 20 25 31 36 41
9 9 9 9 9 9 9 10 10 10 11 11 11 12 12 13 13 13 13 13 13 13 13 13 13 13 12 11 11 11 11 11 12 13 14 14 15 15 15 15 15 14 14 13 12 13 13 13 13 14 15 15 16 16 16 16 15 14 13 14 16 19 23 27 31 38 45 47 46 44 44 44 41 37 33 30 25 21 17 14 12 13 16 21 27
8 8 8 8 8 9 9 9 9 10 10 11 11 11 12 11 11 11 11 11 11 11 11 10 10 10 10 9 8 9 10 10 11 11 12 13 13 13 13 13 14 14 14 14 13 13 13 12 12 12 13 15 16 16 16 17 17 16 15 14 13 14 16 20 24 27 33 39 44 44 43 44 44 40 38 37 36 33 30 27 23 18 14 12 12
8 8 8 8 8 9 9 9 10 10 10 10 11 10 10 9 9 9 8 8 8 8 8 7 7 7 7 7 7 8 8 9 10 10 11 11 11 11 11 11 11 11 11 12 13 12 12 12 11 10 11 12 14 15 16 16 17 17 16 16 15 14 13 14 17 20 24 29 34 38 39 40 41 41 40 39 39 40 41 40 38 34 28 22 16
8 8 9 9 9 9 9 9 9 9 9 10 9 9 8 7 7 7 7 6 7 6 6 6 6 6 6 6 6 7 7 7 7 7 7 8 8 8 8 8 8 9 9 9 10 10 10 10 10 10 9 9 11 13 15 16 16 17 17 17 16 16 15 14 14 14 17 21 26 30 33 35 36 37 37 36 38 42 45 46 45 43 40 36 31
8 9 9 9 9 8 8 8 8 8 8 8 7 7 6 6 6 6 6 6 6 6 5 6 6 5 6 5 6 6 6 7 6 6 5 5 6 5 6 6 6 6 7 7 8 8 8 8 9 8 8 8 8 9 12 15 16 16 16 17 17 16 16 16 16 14 14 15 18 22 26 30 32 33 32 31 34 39 43 45 48 49 48 46 43
8 8 8 8 7 7 7 7 7 7 7 7 6 5 5 5 6 5 5 5 5 5 5 4 5 5 5 5 5 6 6 5 5 5 5 5 5 4 5 5 5 5 5 5 6 6 6 7 7 7 7 7 7 7 7 10 14 16 16 16 17 17 16 16 17 17 16 14 14 15 18 23 27 30 30 28 28 32 38 43 46 48 49 49 47
8 7 7 6 6 6 6 6 6 6 5 5 4 4 4 4 5 5 4 4 4 3 3 4 4 4 4 4 4 4 4 4 4 4 4 4 4 4 4 4 3 4 4 4 4 4 5 5 6 6 6 6 7 7 6 6 9 12 16 16 16 16 17 17 16 17 17 17 16 15 15 16 18 23 27 28 26 26 30 37 44 45 44 45 46
7 6 6 6 5 5 5 5 5 4 4 4 4 4 4 4 4 4 3 3 3 3 3 3 3 3 3 3 3 3 3 3 3 3 3 3 3 3 3 3 3 3 3 3 3 3 3 3 4 4 5 5 5 6 7 7 6 7 11 15 16 16 16 17 17 16 16 17 17 17 17 15 15 16 19 23 25 25 26 31 39 45 45 43 45
5 5 5 5 5 4 4 4 4 4 4 4 4 3 3 3 3 3 3 3 3 3 3 3 3 3 3 3 3 3 3 3 3 3 3 3 3 3 2 2 2 2 2 2 2 3 3 3 3 3 3 4 4 5 5 6 6 6 7 10 13 15 16 17 17 17 16 16 16 17 18 17 17 16 15 16 19 21 24 27 34 43 52 56 52
4 4 4 4 4 3 3 3 3 3 3 3 3 3 2 2 3 3 3 3 3 3 3 3 3 2 2 2 2 2 2 3 2 2 3 3 2 2 3 2 2 2 2 2 2 2 2 2 2 3 3 3 3 3 4 5 6 6 5 6 9 12 15 16 17 17 16 16 16 16 17 17 18 18 17 16 16 17 18 21 26 33 48 65 66
4 4 4 3 3 3 3 3 3 3 3 3 2 2 2 2 2 2 3 2 3 2 2 3 2 2 2 2 2 3 3 3 3 3 3 3 3 3 2 2 2 2 2 2 2 2 2 2 2 2 2 2 3 3 3 4 4 5 5 5 6 8 11 14 16 16 16 16 16 15 15 16 17 18 18 18 18 17 16 16 18 21 31 50 66
4 4 4 4 3 3 3 3 3 3 3 3 2 2 2 2 2 2 2 2 2 2 2 2 2 2 3 3 3 3 3 3 3 3 4 3 3 3 3 3 2 2 2 2 2 2 2 2 2 2 2 2 2 2 2 3 3 4 4 5 5 5 7 10 13 15 16 16 15 15 15 14 15 16 17 18 18 18 18 16 15 16 20 29 48
3 3 3 3 3 3 3 3 3 3 3 3 2 2 2 2 2 2 2 2 2 2 2 2 3 3 3 3 3 3 3 4 4 3 4 3 3 3 3 2 2 2 2 2 2 2 2 2 2 2 2 2 2 2 2 2 2 3 3 4 4 4 5 7 10 13 15 15 15 15 15 14 14 15 15 17 18 19 19 19 17 16 17 20 29
3 3 3 3 3 3 3 3 3 3 3 3 3 3 2 2 2 2 2 2 2 2 2 3 3 3 3 3 3 3 3 3 3 3 3 3 3 2 2 2 2 2 1 2 2 1 2 2 2 2 2 2 2 2 2 2 2 2 2 3 4 4 4 5 7 9 12 14 14 14 14 14 14 14 14 15 16 17 19 20 20 18 17 18 20
3 2 3 3 3 3 3 3 3 3 3 3 3 3 3 3 2 2 2 2 2 3 3 3 3 3 3 3 3 3 3 3 2 2 2 2 2 2 2 2 2 2 1 1 1 1 2 2 2 2 2 2 2 2 2 2 2 2 2 3 3 3 4 4 5 6 9 11 12 13 12 13 14 14 14 14 15 16 17 18 20 21 19 18 19
2 2 2 3 3 3 3 3 3 3 3 3 3 3 3 3 3 3 3 3 3 3 3 3 3 3 3 2 3 2 2 2 2 2 2 2 2 2 2 2 2 2 2 1 2 1 1 2 2 2 2 2 2 2 2 2 2 2 2 2 2 3 3 3 4 5 6 8 10 11 11 11 12 13 13 13 13 14 15 16 18 20 21 20 20
2 2 2 2 2 2 2 3 2 2 3 2 3 3 3 2 2 3 3 3 3 3 3 3 3 3 3 2 2 2 2 2 1 2 2 2 2 2 2 2 2 2 2 2 2 1 1 2 1 2 2 2 2 2 2 2 2 2 2 2 2 2 2 3 3 4 5 6 8 10 10 10 10 11 12 12 12 13 13 14 15 16 18 20 20
2 2 2 2 2 2 2 2 2 2 2 2 3 2 2 2 2 3 3 3 3 3 3 3 3 2 2 2 2 2 2 2 2 2 2 2 2 2 2 2 2 2 2 2 2 2 2 1 1 2 2 2 2 2 2 2 2 2 2 2 2 2 2 2 3 3 4 5 6 7 9 10 10 9 10 10 10 11 11 12 13 14 15 16 17
2 2 2 2 2 2 2 2 2 2 2 2 2 2 2 2 2 3 3 3 3 3 3 2 2 2 2 2 2 2 2 2 2 2 2 2 2 2 2 2 2 2 2 2 2 2 2 1 2 2 2 2 2 2 2 2 2 2 2 2 2 2 2 2 2 3 3 4 4 6 7 9 10 9 8 8 9 9 10 10 11 12 12 13 15
2 2 2 2 2 2 2 2 2 2 2 2 2 2 2 2 3 3 3 3 3 3 2 2 2 2 2 2 2 2 2 2 2 2 2 2 2 2 2 2 2 2 1 2 2 1 2 1 2 2 2 2 2 2 2 2 2 2 2 2 2 2 2 2 2 2 2 3 3 4 5 7 9 9 8 8 8 8 8 8 9 10 11 11 12
2 2 2 2 2 2 2 2 2 2 2 2 2 2 3 3 3 3 3 3 2 2 2 1 2 1 1 2 2 2 2 2 2 2 2 2 2 1 2 2 2 2 2 2 1 1 2 1 2 2 2 2 2 2 2 2 2 2 2 2 2 2 2 2 2 2 2 2 2 3 3 4 6 8 9 8 8 7 7 7 8 8 9 10 10
2 2 2 2 2 2 2 2 2 2 2 3 2 3 3 3 3 3 3 2 2 2 2 1 2 2 1 2 2 2 2 2 2 2 2 2 2 1 2 2 2 2 2 2 2 2 1 1 2 2 1 2 2 2 2 2 2 2 2 2 2 2 2 2 2 2 2 2 2 2 3 3 4 5 7 8 8 8 7 7 8 7 8 9 10
2 2 2 2 2 2 2 2 2 2 2 3 3 3 3 3 3 3 2 2 2 1 1 1 1 1 2 2 2 2 2 2 2 2 2 2 2 2 2 2 2 2 2 2 2 2 2 2 2 2 2 2 2 2 2 2 2 2 2 2 2 2 2 2 2 2 2 2 2 2 2 2 3 3 4 6 6 7 7 6 7 7 8 8 8
2 2 2 2 2 2 3 3 3 3 3 3 3 3 3 3 3 2 2 2 1 1 1 1 1 2 2 2 2 2 1 2 2 1 2 2 2 2 2 2 2 2 2 2 2 2 2 2 2 2 2 2 2 2 2 2 2 2 2 2 2 2 2 2 2 2 2 2 2 2 2 2 2 3 3 4 5 5 6 6 6 6 7 7 8
2 2 2 2 2 2 3 3 3 3 3 3 3 3 3 3 2 2 2 1 1 1 1 1 1 2 2 1 2 1 1 2 2 2 2 2 2 2 2 2 2 2 2 2 2 2 2 2 2 2 2 2 2 2 2 2 2 2 2 2 2 2 2 2 2 2 2 2 2 2 2 2 2 2 3 3 4 4 4 5 5 5 6 7 7
2 2 2 2 3 2 2 3 3 3 3 3 3 3 3 3 2 2 2 1 1 1 1 2 1 1 1 2 2 2 2 2 2 2 2 2 2 2 2 2 2 2 2 2 2 2 2 2 2 2 2 2 2 2 2 2 2 2 2 2 2 2 2 2 2 2 2 2 2 2 2 2 2 2 3 3 3 4 4 4 4 4 5 5 6
2 2 2 2 3 3 2 3 2 3 3 3 3 3 2 2 2 2 2 1 2 2 1 1 1 1 2 2 2 2 2 2 2 2 2 2 3 2 2 2 2 2 2 2 2 2 2 2 2 2 2 2 2 2 2 2 2 2 2 2 2 2 2 2 2 2 2 2 2 2 2 2 2 2 3 2 3 3 3 4 3 3 4 4 4
2 2 2 2 3 2 2 3 2 3 3 2 3 2 2 2 2 2 2 2 2 2 2 2 1 2 1 1 2 2 1 2 2 2 2 2 2 2 2 2 2 2 2 2 2 2 2 2 2 2 2 2 2 2 2 2 2 2 2 2 2 2 2 2 2 2 2 2 2 2 2 2 2 2 3 2 3 3 3 3 3 3 3 3 4
2 2 2 2 2 2 2 2 2 2 2 2 2 2 2 2 2 2 2 2 2 2 2 2 2 2 2 2 2 2 2 2 2 2 2 2 2 2 2 2 2 2 2 2 2 2 2 2 2 2 2 2 2 2 2 2 2 2 2 2 2 2 2 2 2 2 2 2 2 2 2 2 2 2 3 2 2 3 3 3 3 3 3 3 3
2 2 2 2 2 2 2 2 2 2 2 2 2 2 2 2 2 2 2 2 2 2 2 2 2 2 2 2 2 2 2 2 2 2 2 2 2 2 2 2 2 2 2 2 2 2 3 3 2 2 2 2 2 2 2 2 2 2 2 2 2 2 2 2 2 2 2 2 2 2 2 2 2 2 2 2 2 3 3 3 3 3 3 3 3
2 2 2 2 2 2 2 2 2 2 2 2 2 2 2 2 2 2 2 2 2 2 2 2 2 2 2 2 2 2 2 2 2 2 2 2 2 2 2 2 2 2 2 2 2 2 3 3 3 3 3 2 2 2 2 2 2 2 2 2 2 2 2 2 2 2 2 2 2 2 2 2 2 2 2 2 2 3 3 3 3 2 3 3 3
2 2 2 2 2 2 2 2 2 2 2 2 2 2 2 2 2 2 2 2 2 2 2 2 2 2 2 2 2 2 2 2 2 2 2 2 3 3 3 3 2 2 2 2 2 2 2 3 3 3 3 2 2 2 2 3 2 2 3 3 2 3 2 2 2 2 2 2 2 2 2 2 2 2 2 2 2 2 2 2 2 2 3 2 3
2 2 2 2 2 2 2 2 2 2 2 2 2 2 2 2 2 2 2 2 2 2 2 2 2 2 2 2 3 2 3 3 2 3 3 2 3 3 2 2 2 2 3 2 3 2 2 3 3 3 3 3 3 3 2 3 3 3 3 3 3 3 3 3 3 2 2 2 2 2 2 2 2 2 2 2 2 2 2 2 2 2 2 3 3
3 2 2 2 2 2 2 2 2 2 2 2 2 2 2 2 2 2 2 2 3 3 3 3 3 3 3 3 3 3 3 3 2 3 3 3 3 3 3 3 3 3 3 3 3 3 2 3 3 3 3 3 3 3 2 3 3 3 3 3 3 3 3 3 3 3 3 2 2 2 2 2 2 2 2 2 2 2 2 2 2 2 3 3 2
3 2 2 2 2 2 2 2 2 2 2 2 2 2 2 2 2 3 2 3 3 3 3 3 3 3 3 3 3 3 3 3 3 3 3 3 3 3 3 3 3 3 3 3 3 3 2 3 3 3 3 3 3 3 3 3 3 3 3 3 3 3 3 4 3 3 3 3 3 3 2 2 2 2 2 2 2 2 2 2 2 2 3 3 3
3 2 2 2 2 2 2 2 2 2 2 2 2 2 3 3 3 3 3 3 3 3 3 3 3 3 3 3 3 3 2 3 3 2 3 3 3 3 3 3 3 3 3 3 2 3 2 2 2 3 3 3 3 3 3 3 3 3 3 3 3 3 3 3 4 4 4 4 3 3 3 3 3 2 2 2 2 2 2 2 2 3 3 3 3
3 2 2 2 2 2 2 2 2 2 2 2 2 2 3 3 3 3 3 3 3 3 3 3 3 3 3 3 3 3 3 3 3 3 3 2 2 3 2 3 3 2 3 3 2 2 3 2 2 3 3 3 3 3 3 3 3 3 3 3 3 3 3 3 3 3 4 4 4 4 4 3 3 3 3 3 2 3 2 2 2 2 2 3 3
3 3 2 2 2 2 2 2 2 2 2 3 3 3 3 3 3 3 3 3 3 3 3 3 3 3 3 3 3 3 3 3 3 3 3 2 2 3 2 2 3 2 3 3 3 3 3 3 3 3 3 3 3 3 3 3 3 3 4 4 4 4 3 3 3 3 3 4 4 4 4 4 3 3 3 3 3 3 3 3 3 2 3 3 2
3 3 2 2 2 3 3 3 2 3 3 3 3 3 3 3 3 3 3 3 3 3 3 3 3 3 3 3 3 3 3 3 3 3 3 3 3 3 3 2 3 3 3 3 3 3 3 3 3 3 3 3 3 3 3 3 3 3 4 4 4 4 4 3 3 3 3 3 4 4 4 4 4 4 4 3 3 3 3 3 3 3 3 2 2
3 3 3 3 2 2 3 3 3 3 3 3 3 3 3 3 3 3 3 3 3 3 3 3 3 3 3 3 3 3 3 3 3 3 3 3 3 3 3 3 3 3 3 3 3 3 3 3 3 3 3 3 3 3 3 3 3 3 3 4 4 4 4 4 4 4 3 3 3 3 4 4 4 4 4 4 4 4 3 3 3 3 3 3 3
4 3 3 3 2 3 3 3 3 3 3 3 3 4 4 4 4 3 3 3 3 4 3 3 4 3 3 4 4 4 4 4 4 4 4 4 4 4 4 4 4 4 4 3 3 4 3 3 3 3 3 3 3 3 3 3 3 3 3 4 4 4 4 4 4 4 4 3 3 3 3 3 4 4 4 4 4 4 4 4 3 3 3 3 3
4 4 3 3 3 3 3 3 3 4 4 4 4 4 4 4 4 4 4 4 3 4 3 3 4 4 3 4 4 4 4 4 4 4 4 4 4 4 4 4 4 4 4 4 4 4 4 4 4 4 4 4 4 4 3 3 3 3 3 3 4 4 4 4 4 4 4 4 4 3 3 3 4 4 4 4 4 4 4 4 4 3 3 3 3
4 4 4 3 3 3 3 4 4 4 4 4 4 4 4 4 4 4 4 4 4 4 4 4 4 4 4 4 4 3 4 4 4 4 4 3 4 4 3 3 3 3 3 4 3 4 4 4 4 4 4 4 4 4 4 4 4 4 4 4 4 4 4 4 4 4 4 4 4 4 4 4 4 4 4 4 4 5 5 5 4 4 4 4 4
4 4 4 4 3 3 3 3 3 4 5 4 4 4 4 4 4 4 4 4 4 4 4 4 3 4 4 3 4 4 3 4 4 3 4 4 4 4 3 3 3 3 3 3 3 3 3 3 3 3 4 4 4 4 4 4 4 4 4 4 4 4 4 4 4 4 4 4 4 4 4 4 4 4 4 4 5 5 5 5 5 5 4 4 4
5 4 4 4 3 3 3 3 4 4 4 5 4 5 5 4 5 5 5 5 4 4 4 4 4 4 4 4 4 4 4 4 4 4 4 4 4 4 4 4 4 4 4 4 4 3 3 3 3 4 4 4 4 4 4 4 4 4 4 4 4 4 4 4 4 4 4 4 4 4 4 3 4 4 3 4 4 4 5 5 5 5 5 4 4
5 5 4 4 4 4 3 3 4 4 4 5 5 4 5 5 5 5 5 5 5 4 4 4 4 4 4 4 4 4 4 4 4 4 4 4 4 4 4 4 4 4 4 4 4 4 4 4 4 4 4 4 4 4 4 4 4 4 4 4 3 4 4 4 4 4 4 4 4 4 4 4 4 3 3 4 4 4 4 5 5 5 5 4 4
5 5 5 5 4 4 3 3 4 4 4 5 5 5 5 5 4 5 5 5 5 5 4 4 4 4 4 4 4 4 4 4 4 4 4 4 4 4 4 4 4 4 4 4 4 4 4 4 4 4 4 4 4 4 4 4 4 4 4 4 4 4 4 4 3 3 3 3 3 3 3 4 3 3 4 4 4 4 4 4 5 5 4 5 5
5 5 5 5 5 5 4 3 3 4 4 5 5 5 5 4 4 5 5 5 5 5 4 4 4 4 4 4 4 4 4 4 4 4 4 4 4 4 4 4 4 4 4 4 4 4 4 4 4 4 4 4 4 4 4 4 4 4 4 4 4 4 4 4 4 3 3 3 3 3 3 3 3 3 3 3 4 4 4 4 4 5 5 5 5
5 5 5 5 5 5 5 4 3 3 4 4 5 5 5 5 5 4 5 5 5 5 5 5 4 4 4 4 4 4 4 4 4 4 5 5 4 4 4 4 4 4 4 4 4 4 4 5 4 4 4 4 4 4 4 4 4 4 4 4 4 4 4 4 3 3 3 3 3 3 3 3 3 3 3 3 3 3 4 4 4 4 5 5 5
Wind_Speed
86 88 89 91 92 94 95 97 98 100 101 103 104 105 106 108 109 110 112 113 115 115 116 116 116 117 118 119 119 120 121 122 123 124 124 125 126 126 126 126 127 128 128 128 128 128 128 127 127 127 128 129 131 132 133 135 136 137 136 135 134 133 132 130 128 127 126 124 123 124 124 125 126 128 130 132 134 136 138 139 139 138 138 137 137
83 84 86 88 89 91 92 93 95 96 97 98 100 101 102 104 105 106 107 109 109 109 109 110 110 111 112 113 114 114 115 117 118 119 121 122 123 124 124 125 125 126 127 127 128 128 129 129 128 128 128 128 129 130 132 133 134 136 137 137 137 136 135 134 132 131 130 128 126 126 125 126 126 126 126 126 126 128 131 134 136 137 138 138 139
80 81 83 85 87 88 89 90 91 91 92 94 95 97 98 100 101 101 102 103 104 104 105 105 106 107 107 107 107 107 108 109 111 112 114 116 118 119 121 123 124 124 125 126 127 127 129 129 129 129 129 129 129 129 130 131 132 133 135 136 137 138 138 137 136 135 134 132 131 130 129 129 129 128 126 124 123 123 124 126 128 131 133 135 137
78 80 81 82 83 84 85 85 86 87 88 89 90 92 93 95 96 96 97 98 99 100 101 101 102 103 103 103 102 103 103 105 106 108 110 112 114 115 116 118 120 121 123 124 126 126 127 128 128 128 128 129 130 130 130 130 132 132 133 134 135 137 138 139 139 139 137 136 136 135 134 133 132 130 128 125 123 123 122 122 123 124 126 129 131
77 78 79 80 81 81 81 82 83 84 85 86 87 89 90 91 91 92 92 93 95 96 96 96 97 97 98 98 98 99 99 101 103 106 108 110 111 113 114 115 116 117 119 120 123 124 125 126 127 126 126 127 129 130 130 130 131 132 132 133 133 135 136 138 139 140 140 140 139 138 138 137 135 133 131 128 126 125 124 123 123 122 123 123 124
75 76 77 77 78 79 79 80 80 81 82 84 86 87 87 87 88 89 90 90 91 92 92 93 93 94 94 94 94 95 96 98 100 102 104 106 108 109 111 112 113 114 115 117 118 120 121 122 123 123 123 124 125 127 129 131 131 131 132 133 133 133 134 135 137 139 141 142 142 141 141 140 138 137 135 133 130 128 127 126 126 125 124 123 122
73 73 74 75 76 76 77 77 78 79 80 83 84 85 85 85 86 87 88 89 90 90 91 91 91 91 92 91 91 93 96 98 99 100 101 102 103 104 106 107 109 110 112 114 115 116 117 119 120 120 120 121 121 123 125 128 131 131 132 132 133 133 133 134 135 137 139 141 142 142 142 142 141 140 139 137 135 132 131 130 129 128 127 126 124
71 72 73 73 74 74 75 75 77 78 80 82 83 82 83 84 85 86 87 88 88 88 88 87 88 88 89 90 90 93 96 97 97 98 99 100 101 102 103 104 105 106 108 110 111 113 114 116 117 118 118 118 119 120 120 122 127 130 132 132 132 133 133 133 133 135 137 138 140 142 143 143 143 142 142 141 139 137 135 134 133 132 131 129 127
70 70 71 72 72 73 74 75 76 77 79 80 81 81 81 82 83 84 85 85 85 84 83 82 83 85 86 87 88 90 92 92 91 94 97 99 100 100 101 102 103 104 105 106 107 108 109 111 113 115 116 116 117 118 118 118 120 125 130 132 133 133 134 134 133 134 135 136 137 140 142 143 144 143 143 144 143 140 138 137 136 135 134 132 130
69 69 70 70 71 72 73 75 75 76 77 77 79 80 81 81 82 83 84 84 83 81 80 80 82 83 84 84 85 86 87 88 89 91 94 96 96 96 97 98 99 101 102 103 104 105 105 107 109 111 112 113 114 116 117 118 118 119 124 129 132 133 134 134 135 135 135 135 136 137 139 141 143 143 144 144 144 143 141 140 138 137 136 134 133
67 67 69 70 70 72 73 73 73 72 73 74 76 78 79 78 78 78 80 81 80 78 78 79 80 81 82 81 82 83 84 86 88 89 91 92 93 93 94 94 94 96 97 98 99 101 103 105 106 107 108 109 111 112 114 116 118 118 119 123 127 131 133 135 136 136 136 135 135 136 136 138 140 142 143 144 145 144 143 142 141 139 137 137 137
65 66 66 68 68 70 71 71 69 68 69 70 72 74 74 74 73 73 75 76 75 74 75 76 76 77 77 77 78 79 81 83 83 85 86 87 88 90 91 92 92 93 93 93 93 95 98 101 103 104 105 106 107 109 110 112 115 117 117 118 122 127 131 134 136 137 137 137 136 136 135 136 137 138 140 142 144 144 144 144 143 142 140 139 140
65 65 65 66 67 67 68 67 66 66 67 68 69 70 70 69 68 68 70 72 72 71 72 73 73 73 73 73 74 76 77 78 79 81 82 83 84 85 87 89 89 90 91 91 91 91 92 94 97 99 102 104 105 106 107 109 111 114 116 117 118 122 126 130 133 136 137 138 138 137 136 135 136 136 137 139 142 144 145 145 144 143 142 141 142
63 63 63 64 65 65 65 65 64 64 64 65 66 66 67 66 65 65 66 68 68 68 68 68 69 69 69 70 71 73 74 75 77 78 80 81 82 83 84 85 85 85 86 87 88 89 90 90 91 93 96 100 102 104 105 106 108 110 113 115 116 117 120 124 129 132 135 137 138 138 137 136 135 135 135 136 139 141 144 144 144 143 143 143 143
61 61 61 61 62 62 62 62 62 62 62 63 63 64 64 64 63 62 64 64 64 63 63 63 64 64 65 66 67 69 70 72 74 75 77 79 80 82 83 84 83 82 81 81 82 85 87 88 88 89 91 94 98 101 103 104 105 106 109 112 114 114 116 120 124 128 132 135 137 138 138 137 136 135 135 135 136 138 140 143 144 144 144 144 144
60 59 58 58 59 60 60 60 60 60 61 61 61 61 61 61 60 60 61 60 59 58 58 59 60 61 63 63 64 65 66 68 70 71 73 75 77 79 80 81 82 81 79 77 77 78 81 84 85 86 87 88 91 96 99 101 103 103 105 108 110 112 113 115 119 123 128 132 135 136 137 137 136 136 136 136 136 136 137 139 142 144 144 145 145
60 59 57 56 57 58 58 58 57 57 58 58 58 58 59 59 58 58 57 56 56 56 56 56 57 59 60 60 61 61 62 64 65 66 69 71 72 74 75 77 78 78 77 76 75 74 75 78 81 83 84 85 87 90 94 98 100 101 102 103 106 108 110 112 115 119 123 127 131 134 135 135 135 136 136 136 136 135 135 137 139 142 143 144 145
60 59 57 56 56 56 56 56 56 56 56 56 55 55 56 56 55 54 54 54 54 53 54 54 55 56 57 57 57 58 59 60 61 62 64 66 68 69 70 72 73 74 75 75 74 73 72 73 75 78 81 83 84 86 89 92 95 97 98 100 102 104 107 109 112 115 118 122 126 130 132 133 134 135 136 136 135 135 135 136 137 139 140 142 143
57 56 55 54 55 54 54 54 54 55 55 54 53 54 55 54 53 52 52 52 52 52 51 52 53 53 54 54 54 56 57 58 58 60 61 63 64 65 66 67 69 70 71 72 72 72 71 70 71 74 77 80 82 84 85 87 90 92 94 97 99 102 104 105 108 112 115 118 122 125 129 131 132 133 134 135 135 135 135 135 136 137 138 139 141
53 52 51 51 51 51 51 51 51 51 52 52 51 52 52 52 51 50 50 50 50 50 50 50 50 50 51 51 52 54 55 55 56 58 59 60 60 61 61 63 65 66 67 68 69 69 69 68 68 70 72 76 79 81 83 84 85 87 89 93 96 99 101 102 105 109 112 115 118 121 124 127 130 131 133 134 134 135 135 135 136 136 137 137 138
51 50 49 48 47 47 47 48 48 48 48 49 50 50 49 49 48 47 47 47 48 48 48 49 48 47 47 47 49 51 52 53 54 56 57 57 56 56 57 59 61 63 64 65 66 66 66 66 65 66 69 71 74 77 80 81 82 83 86 89 92 95 98 100 103 105 109 113 115 118 121 124 127 129 131 132 133 134 134 134 135 136 136 136 137
51 50 49 47 45 44 44 45 46 46 46 47 48 48 46 45 45 44 44 45 45 45 45 45 45 44 43 44 46 48 50 51 52 53 54 54 54 54 54 55 57 58 60 61 63 64 64 64 64 65 66 67 69 72 75 78 80 81 83 85 88 91 94 97 100 103 105 109 112 115 117 120 124 127 129 130 131 132 132 133 134 134 135 135 135
53 50 48 46 44 42 42 43 45 45 45 45 46 45 43 42 42 42 42 43 42 42 42 41 41 41 41 41 43 45 47 48 50 51 51 51 52 52 52 53 54 55 56 58 60 62 63 63 63 63 64 65 66 68 71 74 77 79 81 82 83 86 89 93 96 99 102 105 108 111 114 117 121 124 126 128 129 130 130 131 132 132 133 134 134
53 51 48 46 44 43 42 43 44 44 43 42 42 41 41 40 40 40 40 41 40 39 37 37 37 38 38 39 41 43 44 46 47 49 50 50 49 49 50 51 52 52 53 54 57 59 60 61 62 63 63 64 65 66 68 70 73 76 78 80 80 81 83 87 91 94 98 101 104 107 110 113 117 120 123 126 128 128 128 129 130 131 131 132 132
51 49 47 45 43 43 42 42 43 42 41 40 39 39 38 38 38 39 39 38 37 36 35 34 35 35 35 37 39 40 41 43 45 46 47 48 48 46 47 48 50 49 49 50 52 54 56 58 60 60 61 62 63 64 65 67 69 72 75 76 78 79 80 82 85 89 93 96 99 102 106 109 112 115 119 123 125 127 127 127 127 128 129 130 130
48 47 46 44 43 41 41 40 41 40 39 38 38 37 37 37 37 37 36 36 35 34 33 32 31 32 33 34 36 37 38 40 42 42 43 45 46 44 44 45 47 47 46 46 48 50 52 55 56 58 58 59 60 61 62 64 65 68 70 72 74 75 77 79 81 84 87 90 93 97 101 104 107 110 114 118 122 124 126 126 126 126 127 128 129
49 47 47 45 43 41 39 39 39 39 38 37 37 37 36 36 36 35 34 33 33 32 31 29 29 29 29 31 33 33 33 35 38 39 39 41 43 43 43 44 45 45 44 44 45 47 49 51 52 54 56 56 57 58 60 61 63 64 66 68 70 71 73 76 78 80 82 85 88 91 95 98 101 105 108 113 117 121 123 124 125 125 125 126 127
52 50 48 47 45 43 41 39 38 38 37 36 35 36 36 35 34 32 31 31 30 30 29 28 27 27 27 28 30 31 31 31 34 34 35 38 41 42 43 44 44 43 42 42 43 44 46 47 49 50 52 53 55 56 58 59 60 62 63 65 66 68 70 72 75 77 79 81 83 86 90 93 96 99 103 107 112 116 120 122 123 123 123 123 124
53 51 49 48 46 44 43 40 39 38 37 36 36 36 35 34 32 30 29 29 28 28 28 28 27 26 25 26 27 28 28 28 29 30 32 35 39 41 42 42 42 42 41 40 41 42 44 45 46 47 48 50 51 52 54 55 57 58 60 62 63 65 67 69 72 74 76 78 80 82 85 88 91 94 97 102 106 111 115 118 120 121 121 120 120
53 52 50 48 46 45 43 41 40 38 37 37 36 35 33 31 30 29 28 28 27 27 27 27 27 27 26 25 25 25 26 26 26 27 31 34 37 40 40 39 40 40 40 39 39 41 42 43 44 44 45 46 47 48 50 51 53 55 56 58 60 62 65 67 69 71 74 76 78 80 81 83 86 88 92 96 100 105 110 113 116 117 118 118 118
54 52 51 49 47 45 44 42 40 39 38 37 35 33 31 30 30 30 29 28 28 27 27 27 27 27 27 26 25 25 25 25 24 26 30 33 35 36 37 36 36 37 37 38 38 39 40 41 42 42 42 43 44 44 46 48 50 52 54 56 58 60 62 64 67 69 71 74 76 77 79 80 81 84 86 90 94 99 103 107 111 113 114 115 115
54 52 51 49 48 46 45 43 41 40 38 36 33 32 30 30 29 29 29 28 27 26 25 25 25 26 26 26 25 24 24 24 24 25 28 31 31 32 33 33 32 33 35 36 36 37 38 39 40 40 40 41 41 41 43 45 47 49 51 54 56 57 59 62 64 67 69 71 73 74 76 77 79 80 82 85 88 93 97 101 104 107 109 110 112
54 52 51 49 48 46 44 43 41 39 37 35 33 32 31 30 29 28 27 26 26 24 23 23 22 23 24 24 23 23 23 22 22 23 25 27 27 28 29 29 29 30 32 33 33 34 35 37 38 39 39 40 39 40 41 42 44 46 48 50 53 55 56 59 61 64 66 69 71 72 73 75 76 77 79 80 83 87 91 95 98 100 102 104 107
56 54 53 50 48 46 44 42 40 38 36 34 33 32 31 30 29 28 27 26 25 24 23 22 22 22 22 22 21 22 21 21 21 21 22 23 23 25 27 27 27 28 29 31 31 31 32 33 36 37 38 38 39 39 39 40 42 44 45 47 50 51 53 56 58 61 64 66 68 69 71 72 73 74 76 77 79 82 85 89 92 94 97 98 101
60 58 57 54 52 49 47 44 42 39 37 36 34 33 31 30 29 28 27 27 26 25 24 23 22 22 21 21 21 21 20 20 20 20 20 20 21 22 24 25 25 26 26 27 28 29 29 30 32 34 36 37 37 37 38 38 40 41 43 45 47 48 50 53 56 58 61 63 65 67 68 70 71 72 73 74 75 77 79 82 85 88 91 93 95
61 60 58 57 54 52 50 47 44 42 40 38 36 34 32 31 30 29 28 27 27 26 25 24 22 22 21 21 21 20 20 20 19 19 18 18 18 19 21 22 22 22 23 24 25 27 28 28 29 32 34 35 35 36 36 37 38 39 40 42 45 46 48 50 53 55 58 60 62 64 66 66 67 69 70 71 72 73 74 77 79 82 85 87 90
63 60 58 56 54 51 49 47 45 43 41 39 37 36 34 33 31 30 28 27 27 26 25 24 23 22 21 21 20 20 19 19 18 18 17 17 17 18 19 19 20 20 21 23 24 25 26 27 28 29 31 33 33 34 34 35 36 37 39 41 43 45 47 49 50 51 53 55 58 60 62 64 65 66 67 68 69 70 71 72 74 76 78 81 84
64 62 60 57 55 52 50 47 45 43 41 39 37 35 34 32 31 29 28 27 26 25 24 24 23 22 21 20 19 18 17 17 17 17 17 17 17 18 18 19 19 20 21 22 23 24 25 26 26 27 28 30 31 32 33 33 34 36 38 41 43 44 46 47 48 48 49 50 52 55 58 60 62 63 64 64 65 67 68 69 70 71 73 76 78
65 64 62 59 56 54 50 48 45 43 41 39 37 35 33 31 30 29 28 26 25 24 24 23 22 21 20 19 18 17 16 15 15 15 16 16 17 18 18 19 19 20 20 21 22 22 23 24 25 25 26 28 29 30 31 32 33 35 36 38 41 43 44 45 45 45 46 47 48 50 53 55 57 58 59 61 62 64 65 67 68 69 70 72 74
68 66 63 60 57 54 51 48 46 43 41 38 36 35 33 32 30 29 28 27 26 25 24 22 21 20 19 18 17 16 15 14 14 14 15 15 16 17 18 18 19 20 20 21 21 21 22 22 23 24 24 25 26 27 28 30 31 32 34 35 37 39 41 42 42 43 43 44 45 47 49 51 52 53 54 56 58 60 62 64 65 66 68 70 70
70 67 64 61 58 55 52 49 47 44 41 39 37 36 34 33 31 29 28 27 25 24 23 22 21 20 19 18 17 16 16 15 14 14 14 15 15 15 16 17 18 19 20 21 21 21 21 21 22 22 22 23 24 25 26 27 29 30 31 33 34 36 37 38 39 40 40 41 42 43 45 46 48 48 49 51 53 55 57 60 62 65 67 67 66
73 69 67 63 60 56 53 51 48 46 44 42 40 38 36 34 32 30 29 27 26 25 24 23 22 21 20 19 18 17 16 15 14 14 14 14 14 15 15 16 16 17 18 19 20 20 21 21 21 21 22 22 22 23 23 24 26 27 29 30 32 33 34 36 36 37 37 38 39 40 42 43 44 45 46 47 49 50 52 54 57 60 63 63 62
76 72 69 66 62 58 55 53 51 49 47 44 41 39 37 35 33 32 31 29 27 26 25 24 23 22 21 20 19 18 17 16 15 14 14 14 14 14 14 14 15 16 16 17 18 19 20 20 20 21 21 21 22 22 22 23 23 24 25 27 28 30 32 33 34 35 35 35 36 37 38 39 41 43 44 45 46 48 49 51 54 55 56 57 59
78 74 71 68 64 61 58 55 53 51 48 46 43 40 38 36 35 34 33 31 29 27 26 26 25 23 22 21 20 19 18 17 16 15 15 14 13 13 13 13 13 14 15 16 16 17 18 18 19 19 20 20 20 21 21 22 22 22 22 23 24 25 27 30 31 32 33 33 33 33 34 35 36 39 40 41 43 44 46 49 51 51 51 52 53
80 76 72 70 66 63 59 56 54 52 50 48 45 43 41 38 36 35 34 32 30 28 27 26 25 24 23 23 22 20 19 18 17 16 15 14 14 13 13 12 12 12 13 13 14 15 15 16 17 17 18 18 18 19 19 20 20 20 21 21 21 22 23 25 27 28 29 31 32 32 32 33 34 35 35 37 39 40 43 45 47 48 48 48 49
83 78 74 70 67 64 60 57 55 53 51 49 47 45 43 41 38 37 35 33 31 30 28 27 26 25 24 24 23 21 20 18 18 17 16 16 15 14 14 13 13 13 13 12 13 13 14 14 15 16 16 16 16 17 17 18 18 18 19 19 19 20 21 22 23 24 26 28 29 30 31 31 32 32 33 34 35 37 40 42 44 45 45 44 45
85 81 76 72 68 65 62 59 56 54 52 50 48 46 44 42 40 38 36 34 32 31 30 29 28 27 26 25 23 22 20 19 18 17 17 16 16 15 15 15 15 14 14 14 13 13 13 14 15 15 16 16 17 16 16 16 17 17 18 18 18 19 20 21 22 23 24 26 27 28 29 30 30 31 31 31 33 35 36 39 41 42 42 42 42
87 83 79 74 70 67 64 61 58 56 53 51 49 46 44 42 40 38 36 34 33 32 31 30 28 27 26 24 23 21 20 19 18 18 17 16 16 16 16 15 15 15 14 14 14 14 13 13 14 15 15 16 17 17 16 16 16 16 16 17 17 18 18 19 20 22 23 24 26 27 28 28 29 29 29 29 30 32 33 35 36 38 39 39 40
89 86 82 78 73 69 66 63 60 57 54 52 49 47 45 43 41 39 37 36 34 32 31 29 28 27 25 24 22 21 20 20 20 19 18 17 16 16 15 15 15 15 14 14 14 14 13 13 13 13 14 15 16 16 16 16 15 15 15 15 16 17 18 18 19 20 22 23 24 25 26 27 27 27 28 28 28 30 31 32 33 34 35 36 38
90 88 84 81 77 72 68 65 62 59 56 53 51 48 46 44 42 40 38 36 34 32 31 29 28 27 25 24 22 22 22 22 21 21 19 18 17 17 16 15 15 15 15 14 14 13 13 13 12 12 12 13 14 14 14 14 14 13 13 13 14 15 16 17 18 19 20 21 22 23 24 25 25 26 26 26 27 28 29 30 31 31 32 33 35
91 89 87 83 80 76 72 68 64 61 58 55 53 50 48 46 44 42 40 38 36 34 32 30 29 28 27 25 24 24 24 24 23 23 22 21 20 19 18 17 17 16 15 15 14 13 12 12 12 12 11 11 11 12 12 12 12 12 11 11 11 12 13 15 16 18 19 19 20 20 21 22 23 24 24 25 25 26 27 27 28 29 30 31 33
Wind_Direction
278 277 276 275 274 274 273 272 271 271 270 270 269 269 269 268 267 267 267 266 266 265 265 265 265 264 264 263 263 262 261 261 261 260 260 260 259 259 259 258 257 257 256 255 254 254 253 252 250 250 249 249 249 249 248 247 246 246 245 244 244 244 245 245 245 245 244 242 242 243 244 244 244 244 244 244 245 245 245 245 245 245 245 245 246
280 279 277 276 275 274 273 272 272 271 271 271 271 270 270 269 269 268 268 268 267 267 267 267 266 265 264 264 263 263 262 262 262 261 261 261 260 260 260 259 259 258 257 256 255 254 253 252 251 250 250 249 249 249 249 248 247 247 246 245 244 244 244 244 244 245 245 244 243 243 243 244 244 243 244 244 244 245 245 245 245 245 245 245 245
281 279 278 276 276 275 275 275 274 274 273 272 272 271 271 270 270 269 269 269 269 268 268 267 266 266 265 264 264 263 263 263 262 262 262 261 261 260 260 260 259 259 258 257 256 255 254 253 252 250 250 249 248 248 248 248 248 247 247 246 245 244 244 244 243 243 244 245 244 243 243 243 243 243 243 243 243 244 244 245 245 245 245 245 245
283 282 280 279 279 279 278 278 277 276 275 275 274 273 272 271 270 270 269 268 268 267 267 266 266 265 265 265 265 264 264 264 263 263 262 261 261 260 259 259 258 258 257 257 257 256 255 254 252 251 249 249 249 248 248 248 248 248 247 246 246 245 244 244 244 243 243 243 244 244 244 244 244 244 243 243 243 244 244 244 244 245 245 245 244
286 285 284 284 283 282 281 280 279 278 277 277 275 274 273 272 271 271 270 269 269 268 268 268 267 267 266 266 265 265 264 263 262 261 260 260 259 258 258 258 257 256 256 256 256 255 255 254 253 251 249 248 248 248 248 248 247 248 247 247 246 245 245 244 244 243 243 243 243 244 244 244 244 244 244 243 243 243 243 244 244 244 244 244 244
289 288 287 286 285 284 282 281 280 279 278 277 275 274 274 274 273 273 272 272 271 271 270 270 269 269 268 267 267 266 265 263 262 260 259 258 257 257 256 256 256 255 255 255 254 254 254 254 253 252 250 248 247 246 247 248 247 247 247 247 246 246 245 244 244 243 243 243 243 243 243 244 244 245 244 244 243 243 243 243 244 244 244 244 244
290 289 288 286 285 284 283 282 281 279 278 276 275 275 275 274 274 274 273 273 272 272 271 271 270 270 270 269 268 267 265 264 262 261 260 259 258 257 256 256 255 255 254 254 254 253 253 253 253 252 251 250 248 245 244 245 247 247 247 247 247 247 246 245 244 244 243 243 243 243 243 243 244 244 245 244 244 243 243 244 244 244 244 244 244
292 291 290 288 287 286 284 283 281 280 278 277 276 276 276 275 275 274 273 272 272 272 271 271 271 271 270 269 267 265 264 263 262 262 262 261 259 258 258 257 256 255 254 253 252 252 251 251 252 251 251 250 249 247 244 242 243 245 246 246 246 247 246 246 245 244 244 243 243 243 243 243 243 244 244 245 244 244 244 244 244 244 244 244 245
295 293 291 290 288 286 285 283 281 280 279 279 279 279 278 277 276 275 274 274 273 273 273 273 272 270 269 267 266 265 264 264 263 262 261 260 259 258 258 257 256 255 254 253 253 252 251 250 250 250 249 249 248 248 247 244 241 241 243 245 245 245 246 246 245 245 244 243 243 242 242 242 243 243 243 244 244 244 244 244 244 245 245 245 245
297 294 292 290 288 286 284 283 281 281 281 281 281 280 279 277 277 277 277 277 276 276 275 274 272 270 269 268 267 267 266 266 264 263 262 261 260 259 258 257 256 255 254 253 253 253 252 251 250 249 248 248 247 246 246 246 243 240 240 242 243 243 244 245 245 245 244 244 243 243 242 242 242 242 243 243 244 244 244 244 244 245 246 246 246
296 294 292 290 288 286 285 283 282 282 281 280 279 278 277 277 277 277 277 277 276 276 275 273 271 270 269 268 268 267 266 265 264 263 262 262 262 261 260 258 257 255 254 252 251 251 251 251 250 249 248 247 246 245 244 245 244 242 239 238 240 242 242 243 244 244 244 244 243 243 242 242 242 242 242 243 243 244 244 244 244 244 245 246 246
296 294 292 290 289 288 286 286 285 284 282 280 279 278 278 278 278 277 276 276 276 275 273 272 271 270 269 269 268 267 265 264 263 263 262 261 261 260 260 259 258 257 255 254 251 249 249 248 248 248 248 247 246 245 244 243 243 243 241 238 237 238 240 241 242 243 243 244 243 243 242 242 241 241 241 241 242 243 243 243 243 243 244 244 246
298 296 294 293 291 290 289 288 288 286 284 282 282 282 281 281 280 278 277 276 275 274 273 272 271 271 270 269 268 266 266 265 264 264 263 262 261 260 259 258 257 256 255 255 253 251 249 248 246 246 246 246 246 245 244 242 241 242 242 240 238 236 237 239 240 241 242 243 243 243 242 241 241 241 241 241 241 242 242 243 243 243 243 243 244
298 296 295 294 293 292 291 290 289 287 285 284 284 283 283 282 281 279 277 275 274 274 273 272 271 270 269 267 266 265 265 264 264 263 263 263 262 261 260 259 258 256 254 253 253 252 251 249 247 245 244 244 245 244 244 242 241 240 240 241 239 237 236 236 238 240 241 242 243 243 243 242 241 241 241 240 240 241 241 242 242 243 243 243 243
299 298 297 296 295 294 293 291 290 289 287 286 285 284 283 282 281 279 277 276 274 274 273 272 271 270 268 267 265 264 264 263 262 262 261 261 260 260 260 259 259 257 256 253 251 250 250 250 249 247 245 243 243 243 243 243 241 240 239 239 240 238 236 235 236 237 239 240 241 242 242 242 242 241 241 240 240 240 240 241 241 242 242 242 242
302 301 300 299 297 295 294 292 291 290 288 287 286 285 284 283 282 280 278 278 277 275 274 272 272 270 269 267 265 263 262 261 261 260 259 259 258 257 257 258 258 257 256 254 252 249 248 248 249 249 247 244 243 242 243 243 243 241 240 239 239 239 237 236 235 235 237 238 240 241 241 242 242 242 241 241 240 240 240 240 241 241 241 241 242
306 305 303 301 299 297 295 294 293 291 290 288 287 286 284 283 282 281 281 280 278 277 276 274 273 271 269 267 265 264 262 261 260 259 258 257 257 256 255 256 256 257 257 256 254 251 248 247 247 248 248 247 244 242 242 242 243 242 241 240 239 238 237 236 235 235 235 236 238 240 240 241 241 241 242 241 241 240 240 239 240 240 241 241 241
309 308 307 305 302 300 299 298 297 295 293 291 290 288 286 285 284 283 283 282 280 278 277 275 273 271 270 268 267 266 264 263 261 260 258 257 256 255 255 254 255 255 256 256 255 253 250 247 246 245 246 246 245 244 242 241 241 242 242 241 240 239 237 236 235 235 234 235 236 238 240 240 240 241 241 241 241 241 240 240 240 240 240 240 240
309 309 308 307 305 304 303 301 299 297 296 295 293 290 289 288 287 286 285 283 282 280 277 275 273 272 271 270 268 266 265 263 262 261 259 258 256 255 254 254 254 254 254 254 254 253 251 248 246 245 244 244 245 244 243 241 240 240 240 240 240 239 238 236 235 235 234 234 234 236 238 239 240 240 240 241 241 241 241 240 240 240 240 240 240
311 310 310 309 307 306 305 303 300 299 297 296 294 292 291 291 290 289 287 285 283 281 278 276 273 272 271 270 268 267 265 264 263 261 259 258 257 256 255 255 255 254 254 253 253 253 251 249 247 246 244 243 243 244 244 243 241 239 239 239 239 239 238 237 236 235 234 234 234 234 236 237 239 240 240 240 241 241 241 240 240 240 240 239 240
316 315 315 313 311 309 307 304 302 300 298 296 294 293 293 292 291 290 287 284 282 281 279 277 275 273 271 268 267 266 265 264 263 262 260 259 258 257 255 254 254 254 254 253 253 252 251 250 248 247 245 243 242 243 243 244 243 241 239 238 238 238 238 238 237 235 234 234 234 233 234 235 237 239 240 240 240 240 241 241 240 240 240 240 239
321 320 319 317 315 312 310 306 303 301 299 298 297 296 296 294 292 290 287 284 282 280 279 278 277 275 272 269 266 264 264 263 262 261 261 260 259 258 257 256 255 254 254 253 252 251 250 249 248 247 246 244 243 242 242 243 243 242 241 239 238 237 237 237 237 236 235 235 234 234 233 233 235 237 238 239 240 240 240 240 241 240 240 240 240
325 325 323 321 319 316 313 309 306 304 303 301 300 299 298 296 293 290 288 285 283 281 280 279 277 275 272 269 266 264 263 263 262 261 260 259 259 258 258 257 256 254 252 251 250 250 249 248 247 246 245 244 243 241 241 241 241 242 242 241 239 238 237 237 237 237 237 236 235 235 234 233 233 235 237 238 239 239 239 240 240 240 240 240 241
329 328 326 324 323 320 317 314 311 309 308 305 303 302 300 297 295 292 290 287 286 284 282 280 276 273 271 269 267 265 263 262 261 260 260 260 258 258 257 257 256 254 252 250 250 249 248 247 246 245 244 244 243 242 241 240 240 241 241 241 241 239 238 238 237 237 237 237 236 236 235 234 233 233 235 237 239 240 240 239 239 240 240 240 240
331 330 328 327 326 324 322 319 315 313 311 309 306 304 302 300 298 295 292 290 288 286 284 281 278 275 272 269 267 265 264 262 261 260 260 261 260 259 258 257 256 255 252 251 249 249 247 246 245 244 244 244 243 243 242 241 241 241 241 241 241 241 240 239 238 238 238 237 237 236 236 235 234 233 234 235 237 239 240 240 239 239 240 240 240
335 333 331 330 330 328 326 322 318 316 314 312 310 307 305 302 300 297 295 293 291 289 287 284 281 278 274 271 268 266 264 262 262 261 261 262 262 262 260 258 257 255 253 251 249 247 246 245 244 243 243 243 243 243 242 242 242 242 242 241 241 241 241 240 240 239 238 238 238 237 237 237 236 235 234 234 236 238 239 240 240 240 240 240 240
339 338 335 334 334 332 330 326 322 319 318 316 313 310 308 305 302 300 298 297 295 293 292 288 284 280 276 272 270 267 264 262 262 262 261 261 262 262 261 260 258 256 253 251 250 248 246 246 244 243 242 242 242 242 241 241 241 241 242 242 241 241 241 241 241 240 239 238 238 238 237 237 237 236 235 235 235 237 238 240 241 241 240 240 240
342 341 340 338 337 335 333 330 326 323 321 319 316 313 311 309 307 305 303 301 299 297 295 291 287 282 277 273 270 268 265 261 260 260 259 258 259 259 259 259 259 258 256 253 252 250 248 246 245 244 242 241 241 241 241 241 240 240 241 241 241 241 241 241 241 241 241 240 239 238 238 237 237 236 235 235 235 236 237 239 240 241 241 241 240
344 343 342 341 339 337 335 333 330 327 325 323 320 318 315 314 312 310 308 305 303 301 298 295 291 286 280 275 271 269 266 263 260 258 256 255 256 257 257 258 259 260 258 256 253 252 250 248 247 245 244 242 241 241 241 242 242 241 241 241 242 242 241 241 241 241 241 241 240 239 238 238 237 236 236 235 235 236 237 238 240 241 242 242 242
346 345 344 342 341 339 337 335 333 331 329 327 325 323 321 319 316 314 312 310 308 305 303 300 297 292 287 283 278 274 271 267 263 259 256 254 255 256 257 258 258 259 259 257 254 252 251 249 248 247 245 243 242 240 240 241 241 241 241 241 241 242 242 242 241 241 241 241 241 241 240 239 238 237 236 236 235 236 237 238 239 241 242 243 243
348 347 346 344 342 341 339 338 336 334 333 331 329 328 326 323 321 319 318 316 313 311 307 304 300 296 293 290 286 282 277 273 268 262 259 257 257 259 260 259 259 258 257 256 254 252 251 250 249 248 247 245 243 242 240 240 240 240 240 241 241 241 242 242 242 242 241 242 242 242 242 241 240 239 237 236 236 236 237 238 239 240 241 242 243
350 349 347 346 344 343 342 341 339 338 336 335 333 331 329 327 325 322 320 318 315 311 307 302 297 294 291 290 287 283 279 275 270 265 263 262 262 263 263 263 261 259 257 255 252 251 251 251 250 249 248 247 245 243 241 240 240 240 240 241 241 241 242 242 242 242 242 242 242 242 242 242 242 241 239 237 236 236 237 238 239 240 241 242 243
352 351 349 348 347 346 345 344 342 342 341 340 338 335 333 331 328 325 321 318 314 311 307 303 298 294 292 290 287 285 281 278 273 269 266 267 267 266 265 264 262 259 257 255 252 250 250 250 250 249 249 248 246 244 242 241 240 240 240 241 241 241 242 243 243 243 242 242 242 242 243 243 243 242 241 239 238 237 237 238 239 240 240 241 242
354 353 352 351 351 350 349 348 346 346 345 344 342 339 336 334 331 328 325 322 320 318 316 312 308 303 299 296 292 289 286 283 279 275 272 270 269 266 265 263 261 258 257 257 255 252 250 251 252 252 251 250 249 247 245 243 241 241 241 242 242 242 242 243 243 243 243 243 242 242 243 243 243 243 242 241 240 238 238 238 239 240 240 241 241
357 356 355 354 354 353 353 352 351 350 349 347 345 342 339 337 335 334 333 331 328 326 324 321 317 313 310 306 302 298 294 289 286 282 279 277 273 270 268 267 265 263 262 261 259 256 253 252 252 253 253 252 251 250 248 246 245 243 243 243 243 243 243 243 243 244 244 243 243 243 242 243 243 243 243 243 242 241 240 239 239 240 240 241 241
360 358 357 356 355 355 355 354 353 353 352 350 347 345 344 343 341 341 339 337 334 331 330 329 326 322 318 314 310 305 299 295 290 286 283 281 278 275 274 272 270 267 264 262 260 259 257 254 252 252 252 252 251 251 249 248 247 246 245 245 245 244 244 244 244 244 244 244 244 244 243 243 243 243 243 243 243 242 241 241 240 240 240 241 241
1 0 360 359 357 357 356 355 355 354 353 352 350 349 348 346 345 344 343 341 339 337 335 334 332 328 323 318 313 308 303 299 295 291 287 283 280 277 275 272 270 266 264 262 261 260 259 256 253 252 252 253 253 252 251 250 248 247 246 245 245 244 244 244 245 246 246 247 246 246 245 245 244 243 243 243 243 243 243 242 242 241 241 241 242
3 2 1 0 360 359 359 358 357 356 355 354 352 351 350 349 348 348 346 345 343 341 339 337 335 332 328 323 319 314 309 304 299 295 291 287 283 280 277 275 272 269 266 264 263 262 261 260 257 254 253 253 253 252 252 251 249 247 246 246 245 245 244 244 244 244 246 247 247 247 247 246 245 244 244 244 244 244 244 244 243 243 242 242 242
5 5 4 2 1 1 1 0 360 358 357 356 355 354 353 353 352 350 349 348 347 345 343 341 338 335 332 329 326 322 317 311 305 299 294 290 287 284 282 281 279 277 274 272 270 268 266 264 263 259 256 254 253 253 252 252 251 250 250 249 248 247 246 245 244 244 244 244 244 245 246 246 246 246 245 244 244 244 245 245 245 245 244 243 243
6 6 5 4 3 2 2 2 2 1 360 359 358 357 357 356 355 354 352 351 350 349 346 343 341 339 337 335 332 328 324 319 312 306 300 296 293 290 288 287 285 284 282 280 277 274 271 269 266 264 260 257 255 254 253 253 253 253 253 252 251 250 250 249 247 245 244 243 243 243 245 246 247 246 246 245 245 244 244 245 245 245 245 245 244
7 7 6 6 5 4 4 4 4 3 3 3 2 2 1 360 359 357 356 355 353 351 349 347 345 344 342 340 337 333 329 324 318 313 307 302 298 295 292 291 289 288 287 285 283 280 277 275 272 269 266 263 259 257 255 253 252 251 251 252 252 252 252 251 249 247 245 243 242 241 242 244 246 246 246 245 245 244 244 244 244 244 245 245 245
8 7 7 6 6 6 6 6 6 6 6 6 5 4 4 3 2 1 0 359 358 356 354 352 351 350 349 346 343 339 334 330 325 320 315 310 306 303 300 297 294 292 289 287 285 284 281 279 277 274 272 269 266 262 259 256 254 252 250 250 250 251 252 253 252 251 248 245 243 241 240 241 243 244 244 243 244 244 244 244 243 243 244 244 244
7 7 7 7 7 7 7 8 8 8 8 7 6 6 6 6 5 5 4 3 2 360 358 357 356 356 355 352 349 345 341 337 333 328 324 318 314 311 307 303 298 294 291 288 286 284 283 281 279 278 275 273 271 268 265 262 259 256 254 251 250 249 250 252 253 253 252 250 247 244 242 241 241 242 243 243 243 243 243 243 243 242 243 243 243
8 8 8 7 7 8 8 9 9 9 8 7 7 7 7 7 8 8 7 5 4 2 0 360 359 358 358 357 355 352 348 345 341 336 332 328 324 319 314 308 303 299 296 293 290 288 286 284 282 280 278 276 273 271 269 268 265 262 259 255 251 249 248 248 249 251 252 252 251 249 247 244 242 242 242 242 243 243 243 244 244 243 243 242 243
9 9 9 8 8 8 9 9 9 9 9 8 7 7 8 8 9 9 8 7 5 4 2 2 2 1 1 1 359 357 354 349 345 341 337 335 332 327 320 315 312 309 304 300 297 294 291 288 285 282 279 276 274 271 270 268 267 266 264 261 257 254 251 249 248 248 249 250 250 249 247 246 244 243 242 242 242 243 244 245 246 245 243 242 242
10 10 9 9 9 9 9 10 10 10 10 9 8 8 8 8 8 9 8 7 6 6 6 6 6 5 3 2 1 359 356 353 349 345 341 340 336 332 329 328 326 322 317 312 308 303 299 295 292 289 285 282 279 276 274 272 271 269 267 264 261 259 256 253 250 249 248 248 249 248 246 245 244 242 241 239 239 240 241 243 245 246 245 243 242
11 11 10 10 9 9 9 10 11 11 10 9 9 8 8 7 8 9 9 9 8 8 8 8 7 5 3 2 2 1 0 358 355 351 347 344 340 337 336 336 333 328 325 321 316 313 309 304 301 297 295 292 289 285 282 279 277 275 272 269 265 261 258 256 254 251 249 248 248 248 248 246 244 242 240 238 238 238 239 239 241 244 246 246 244
11 11 11 11 10 10 9 10 11 11 11 10 9 9 9 8 8 9 10 10 10 10 9 8 6 4 3 3 5 5 4 2 360 356 352 348 344 341 340 338 334 331 328 325 322 320 316 311 306 301 297 295 292 290 287 284 281 279 277 275 272 267 263 259 256 253 250 249 248 248 248 248 247 245 242 239 237 238 239 239 239 241 243 245 245
11 11 11 11 11 11 10 10 11 11 11 11 10 10 10 9 9 10 11 11 12 12 11 10 8 6 5 7 10 11 10 8 5 2 358 354 350 346 344 341 337 334 332 331 328 325 321 316 311 306 300 296 293 291 289 286 283 280 277 274 272 269 266 263 259 256 254 251 250 250 249 249 249 248 246 243 240 239 239 239 239 239 240 241 243
12 11 11 11 11 11 11 11 11 11 11 11 11 11 10 11 11 11 11 12 13 13 14 14 13 11 10 11 13 15 15 13 11 8 5 2 358 355 351 347 343 341 339 338 334 330 325 320 315 309 304 299 295 292 289 286 283 280 275 270 266 262 261 260 259 258 256 255 254 253 252 251 249 248 246 245 243 241 240 239 239 239 238 238 239
13 12 11 11 11 11 12 11 11 11 11 12 11 11 11 11 12 12 12 12 13 14 16 17 17 15 14 14 15 16 17 16 15 12 10 8 6 4 2 358 354 351 349 346 342 337 331 325 319 315 309 305 301 297 294 291 288 285 280 274 268 262 258 256 256 256 256 255 254 254 254 253 252 249 246 243 240 239 237 237 237 237 237 237 237